Weather History for Westhampton Beach, NY

Change the Weather History Date:

Thursday, November 15, 2012

  Actual Average Record
Temperature  
Mean Temperature 36 °F -  
Max Temperature 43 °F 50 °F 66 °F (2011)
Min Temperature 30 °F 31 °F 24 °F (2003)
Degree Days  
Heating Degree Days 28    
Moisture  
Dew Point 30 °F    
Average Humidity 71    
Maximum Humidity 85    
Minimum Humidity 60    
Precipitation  
Precipitation 0.00 in - - ()
Sea Level Pressure  
Sea Level Pressure 30.39 in    
Wind  
Wind Speed 6 mph (NNE)    
Max Wind Speed 12 mph    
Max Gust Speed -    
Visibility 10 miles    
Events      
Averages and records for this station are not official NWS values.
T = Trace of Precipitation, MM = Missing Value Source: NWS Daily Summary

Daily Weather History Graph

Daily Weather History Graph

Search for Another Location

Airport:

Trip Planner

Search our weather history database for the weather conditions in past years. The results will help you decide how hot, cold, wet, or windy it might be!

Date:

Astronomy

Nov. 15, 2012 Rise Set
Actual Time 6:38 AM EST 4:31 PM EST
Civil Twilight 6:08 AM EST 5:01 PM EST
Nautical Twilight 5:35 AM EST 5:34 PM EST
Astronomical Twilight 5:03 AM EST 6:06 PM EST
Moon 8:31 AM EST (11/15) 6:19 PM EST (11/15)
Length of Visible Light 10h 52m
Length of Day
9h 53m
Waxing Crescent, 5% of the Moon is Illuminated
Nov 15
Waxing Crescent
Nov 20
First Quarter
Nov 28
Full
Dec 6
Last Quarter
Dec 13
New

Hourly Weather History & Observations

Time (EST) Temp. Windchill Dew Point Humidity Pressure Visibility Wind Dir Wind Speed Gust Speed Precip Events Conditions
12:53 AM 34.0 °F - 25.0 °F 70% 30.45 in 10.0 mi Calm Calm - N/A   Clear
1:53 AM 30.9 °F 25.2 °F 25.0 °F 79% 30.46 in 10.0 mi North 5.8 mph - N/A   Clear
2:53 AM 39.0 °F 33.4 °F 28.9 °F 67% 30.42 in 10.0 mi NNE 8.1 mph - N/A   Mostly Cloudy
3:53 AM 39.0 °F 33.4 °F 30.0 °F 70% 30.42 in 10.0 mi NNE 8.1 mph - N/A   Overcast
4:53 AM 39.9 °F 33.9 °F 30.9 °F 70% 30.43 in 10.0 mi North 9.2 mph - N/A   Overcast
5:04 AM 39.2 °F 32.0 °F 30.2 °F 70% 30.43 in 10.0 mi North 11.5 mph - N/A   Overcast
5:53 AM 39.9 °F 33.9 °F 30.9 °F 70% 30.43 in 10.0 mi NNE 9.2 mph - N/A   Overcast
6:53 AM 39.9 °F 33.9 °F 30.9 °F 70% 30.44 in 10.0 mi North 9.2 mph - N/A   Overcast
7:53 AM 41.0 °F 34.3 °F 32.0 °F 70% 30.44 in 10.0 mi NNE 11.5 mph - N/A   Overcast
8:53 AM 41.0 °F 34.3 °F 30.9 °F 67% 30.43 in 10.0 mi NNE 11.5 mph - N/A   Overcast
9:53 AM 42.1 °F 35.7 °F 32.0 °F 67% 30.42 in 10.0 mi NNE 11.5 mph - N/A   Overcast
10:53 AM 43.0 °F 37.7 °F 32.0 °F 65% 30.41 in 10.0 mi NNE 9.2 mph - N/A   Overcast
11:53 AM 43.0 °F 37.2 °F 32.0 °F 65% 30.38 in 10.0 mi NNE 10.4 mph - N/A   Overcast
12:53 PM 43.0 °F 37.7 °F 32.0 °F 65% 30.38 in 10.0 mi NNE 9.2 mph - N/A   Overcast
1:53 PM 43.0 °F 37.7 °F 30.9 °F 62% 30.36 in 10.0 mi NNE 9.2 mph - N/A   Overcast
2:53 PM 43.0 °F 39.5 °F 30.0 °F 60% 30.37 in 10.0 mi NNE 5.8 mph - N/A   Overcast
3:42 PM 42.8 °F 41.1 °F 30.2 °F 61% 30.36 in 10.0 mi North 3.5 mph - N/A   Mostly Cloudy
3:53 PM 43.0 °F 41.3 °F 30.0 °F 60% 30.36 in 10.0 mi NNW 3.5 mph - N/A   Mostly Cloudy
4:53 PM 37.9 °F 35.5 °F 30.0 °F 73% 30.36 in 10.0 mi NW 3.5 mph - N/A   Scattered Clouds
5:53 PM 37.0 °F 34.5 °F 30.0 °F 76% 30.36 in 10.0 mi NW 3.5 mph - N/A   Overcast
6:53 PM 37.0 °F - 30.9 °F 79% 30.35 in 10.0 mi Calm Calm - N/A   Mostly Cloudy
7:53 PM 34.0 °F - 28.9 °F 82% 30.35 in 10.0 mi Calm Calm - N/A   Clear
8:53 PM 33.1 °F - 28.9 °F 85% 30.35 in 10.0 mi Calm Calm - N/A   Clear
9:53 PM 32.0 °F - 27.0 °F 82% 30.34 in 10.0 mi Calm Calm - N/A   Clear
10:53 PM 30.0 °F - 26.1 °F 85% 30.32 in 10.0 mi Calm Calm - N/A   Clear
11:53 PM 30.9 °F - 27.0 °F 85% 30.31 in 10.0 mi Calm Calm - N/A   Clear